Weather Roundup
Issued by NWS Chicago, IL

Home | Current Version | Previous Version | Text Only | Print | Product List | Glossary Off
Versions: 1 2 3 4 5 6 7 8 9 10 11 12 13 14 15 16 17 18 19 20 21 22 23 24 25 26 27 28 29 30 31 32 33 34 35 36 37 38 39 40 41 42 43 44 45 46 47 48 49 50

000
NZUS59 KLOT 311210
HRRLOT

CHICAGO AREA WEATHER ROUNDUP
NATIONAL WEATHER SERVICE CHICAGO/ROMEOVILLE IL
700 AM CDT THU JUL 31 2014

NOTE: "FAIR" INDICATES FEW OR NO CLOUDS BELOW 12,000 FEET WITH NO
SIGNIFICANT WEATHER AND/OR OBSTRUCTIONS TO VISIBILITY.

* THESE STATIONS ARE NOT UNDER NWS QUALITY CONTROL. THEY ALSO MAY NOT
  REPORT WEATHER SUCH AS PRECIPITATION OR FOG.

ILZ005-006-012>014-019>023-311300-
NORTHEAST ILLINOIS

CITY           SKY/WX    TMP DP  RH WIND       PRES   REMARKS
OHARE          PTSUNNY   64  55  72 NW5       30.02S
6HR MIN TEMP:  59; 6HR MAX TEMP:  64;

MIDWAY         MOSUNNY   65  60  84 SW5       30.03S
6HR MIN TEMP:  63; 6HR MAX TEMP:  66;

AURORA         SUNNY     57  54  89 CALM      30.04F FOG
6HR MIN TEMP:  53; 6HR MAX TEMP:  57;

LANSING*         N/A     58  56  95 CALM      30.04S FOG
JOLIET*        SUNNY     57  56  97 SW3       30.06S FOG
WAUKEGAN       CLOUDY    63  56  78 VRB3      30.01S
6HR MIN TEMP:  58; 6HR MAX TEMP:  63;

DUPAGE AIRPORT SUNNY     59  55  87 CALM      30.03S
6HR MIN TEMP:  57; 6HR MAX TEMP:  61;

WHEELING       CLOUDY    63  59  87 S3        30.04S
6HR MIN TEMP:  60; 6HR MAX TEMP:  63; 6HR PCP:  0.03;

KANKAKEE*      SUNNY     56  56  98 CALM      30.07R FOG
MORRIS*        SUNNY     57  57  99 SW3       30.05S
LEWIS AIRPORT* SUNNY     58  58 100 S5        30.04S FOG
NORTHERLY IS     N/A     66  57  72 W8          N/A
$$

WIZ051-052-058>065-066-070>072-311300-
SOUTHEAST WISCONSIN

CITY           SKY/WX    TMP DP  RH WIND       PRES   REMARKS
MILWAUKEE      MOSUNNY   64  55  72 W6        30.01R
6HR MIN TEMP:  60; 6HR MAX TEMP:  64;

KENOSHA*       MOSUNNY   61  58  90 SW6       30.02S
RACINE*        MOSUNNY   62  56  80 W7        30.02S
BURLINGTON     SUNNY     57  55  91 SW6       30.02S
WAUKESHA       MOSUNNY   57  54  88 CALM      30.02S
WEST BEND      MOSUNNY   59  54  82 CALM      30.00S
$$

INZ001>003-010>013-019-020-311300-
NORTHWEST INDIANA

CITY           SKY/WX    TMP DP  RH WIND       PRES   REMARKS
GARY*          MOSUNNY   63  59  88 SW7       30.05R FOG
MICHIGAN CITY* NOT AVBL
RENSSELAER*    NOT AVBL
VALPARAISO     SUNNY     60  57  89 SW6       30.06R FOG
$$

LMZ740>746-311300-
SOUTHERN LAKE MICHIGAN

STATION/POSITION TIME  SKY/WX   TEMP WIND        PRES    VSBY
                                AIR  DIR/SP/G
                 (UTC)          (F)  (DEG/KT/KT) (MB)    (MI)
HARRISON CRIB    1200            67  260/ 10/ 11   N/A
BURNHAM HARBOR   1200            66  250/  6/  9   N/A
CALUMET HARBOR   1200            63  230/  4/  5 1015.8S
BURNS HARBOR     NOT AVBL
MICHIGAN CITY    1200            63  180/  8/ 14   N/A
$$

ABBREVIATIONS USED IN REMARKS
   TC - TEMPERATURE IN CELSIUS
  WCI - WIND CHILL INDEX
   HX - HEAT INDEX
  VSB - VISIBILITY
$$


USA.gov is the U.S. government's official web portal to all federal, state and local government web resources and services.